Regional Weather Roundup
Issued by NWS

Home | Current Version | Previous Version | Text Only | Print | Product List | Glossary On
Versions: 1 2 3 4 5 6 7 8 9 10 11 12 13 14 15 16 17 18 19 20 21 22 23 24 25 26 27 28 29 30 31 32 33 34 35 36 37 38 39 40 41 42 43 44 45 46 47 48 49 50
000
ASUS46 KSTO 060604
RWRCA

NORTHERN AND CENTRAL CA REGIONAL WEATHER ROUNDUP
NATIONAL WEATHER SERVICE SACRAMENTO CA
1100 PM PDT THU MAY 05 2016

NOTE: FAIR INDICATES FEW OR NO CLOUDS BELOW 12,000 FEET WITH NO
SIGNIFICANT WEATHER AND/OR OBSTRUCTIONS TO VISIBILITY.

CAZ001-003-060700-
NORTHWEST AREA

CITY           SKY/WX    TMP DP  RH WIND       PRES   REMARKS
CRESCENT CITY  CLOUDY    50  49  96 N5        29.96R FOG
UKIAH          CLOUDY    56  49  77 N8        29.89R
$$

CAZ006-505>513-060700-
BAY AREA

CITY           SKY/WX    TMP DP  RH WIND       PRES   REMARKS
SANTA ROSA     CLOUDY    56  50  80 CALM      29.86R
SAN RAFAEL     N/A       61  MM  MM MISG
NAPA           PTCLDY    55  51  86 W8        29.86S
CONCORD        PTCLDY    58  49  72 S5        29.86F
OAKLAND CITY   N/A       MM  MM  MM MISG
OAKLAND        PTCLDY    58  50  75 NW10      29.87S
SAN FRAN CITY  N/A       56  MM  84 MISG
SAN FRAN ARPT  PTCLDY    57  55  93 W10       29.87S
LIVERMORE      CLEAR     56  49  77 NW3       29.85S
HAYWARD        CLEAR     58  50  75 NW6       29.86S
REDWOOD CITY   N/A       MM  MM  MM MISG
MOFFETT ARPT   PTCLDY    59  52  77 NW3       29.87S
SAN JOSE ARPT  MOCLDY    60  51  72 NW9       29.86S
$$
CAZ034-037-514>518-060700-
CENTRAL COAST

CITY           SKY/WX    TMP DP  RH WIND       PRES   REMARKS
WATSONVILLE    CLOUDY    56  54  93 CALM      29.88S
SALINAS        CLOUDY    57  52  83 CALM      29.87F
MONTEREY       CLOUDY    57  53  86 E3        29.88S
SAN LUIS OBISP CLOUDY    60  54  80 CALM      29.89R
SANTA MARIA    MOCLDY    55  54  96 CALM      29.89R
$$
CAZ015-016-060700-
NORTHERN SACRAMENTO VALLEY

CITY           SKY/WX    TMP DP  RH WIND       PRES   REMARKS
REDDING        CLOUDY    59  53  80 CALM      29.87F
RED BLUFF      CLOUDY    57  54  89 NW3       29.88F
OROVILLE       CLOUDY    56  54  93 NW5       29.87S
$$
CAZ016>018-060700-
SOUTHERN SACRAMENTO VALLEY

CITY           SKY/WX    TMP DP  RH WIND       PRES   REMARKS
AUBURN         CLOUDY    54  52  94 CALM      29.87S
BEALE AFB      PTCLDY    55  55 100 CALM      29.83F
LINCOLN        FAIR      52  52 100 CALM      29.84F
MARYSVILLE     MOCLDY    54  54 100 CALM      29.86F FOG
SAC INTL ARPT  MOCLDY    55  54  96 NW5       29.85S
MATHER AIRPORT PTCLDY    55  55 100 NW3       29.85S
DOWNTOWN SAC   N/A       58  MM  MM MISG
SAC EXEC ARPT  CLOUDY    58  54  86 NW3       29.84F
VACAVILLE      MOCLDY    56  54  93 CALM      29.86F
TRAVIS AFB     PTCLDY    53  51  94 W6        29.83F
$$
CAZ019>021-060700-
SAN JOAQUIN VALLEY

CITY           SKY/WX    TMP DP  RH WIND       PRES   REMARKS
STOCKTON       CLEAR     57  50  77 W8        29.84F
MODESTO        MOCLDY    61  52  72 W3        29.84F
MERCED         CLOUDY    59  53  80 SW5       29.85R
LEMOORE        CLOUDY    57  51  80 NE8       29.88R
FRESNO         CLOUDY    59  49  69 W12       29.86R
HANFORD        CLOUDY    58  52  80 N6        29.87R
PORTERVILLE    CLOUDY    58  52  80 SE3       29.87F
BAKERSFIELD    CLOUDY    60  51  72 NW3       29.87R
$$
CAZ011-012-071-060700-
NORTHERN MOUNTAINS

CITY           SKY/WX    TMP DP  RH WIND       PRES   REMARKS
YREKA          CLOUDY    53  49  86 N5        29.94R
MOUNT SHASTA   CLOUDY    52  47  83 VRB3      29.92R
ALTURAS        CLOUDY    50  43  77 CALM      29.90F
$$
CAZ011-012-071-060700-
SIERRA NEVADA MTNS

CITY           SKY/WX    TMP DP  RH WIND       PRES   REMARKS
BLUE CANYON    CLOUDY    42  38  85 N9        29.89F
TAHOE VLY ARPT LGT RAIN  34  32  92 CALM      29.95F
MAMMOTH LAKES  MOCLDY    41  28  60 W13       29.89S
$$



USA.gov is the U.S. government's official web portal to all federal, state and local government web resources and services.